This demonstration page uses our WeatherBlox Daily Observations layout. Learn more.

Left ArrowRight Arrow

Hourly Observations for August 10, 2021

Temp ( °F °C ) Dew Point ( °F °C ) Humidity (%) Winds ( mph kmh ) Pressure ( in mb ) Visibility ( mi km ) Precip ( " mm )
12:15 am 00:15 Clear 77 25.2 58 14.4 51 51 WNW 12 19 29.78 1008 10 16 0.00 0.00
12:35 am 00:35 Clear 79 25.9 56 13.3 46 46 WNW 9 15 29.76 1008 10 16 0.00 0.00
12:55 am 00:55 Clear 80 26.4 55 12.5 42 42 W 7 11 29.76 1008 10 16 0.00 0.00
1:15 am 01:15 Clear 79 26.1 55 12.5 43 43 W 6 9 29.76 1008 10 16 0.00 0.00
1:35 am 01:35 Clear with Nearby Thunderstorms 78 25.8 55 12.7 44 44 SSW 5 7 29.77 1008 10 16 0.00 0.00
1:55 am 01:55 Clear 77 25.2 56 13.6 49 49 SSW 8 13 29.79 1009 10 16 0.00 0.00
2:15 am 02:15 Clear with Thunderstorms 80 26.6 54 12.1 41 41 SW 12 19 29.78 1009 10 16 0.00 0.00
2:35 am 02:35 Clear with Nearby Thunderstorms 77 25.2 57 13.7 49 49 SSW 15 24 29.81 1009 10 16 0.00 0.00
2:55 am 02:55 Partly Cloudy with Light Rain 78 25.5 56 13.3 47 47 SW 14 22 29.84 1011 10 16 0.00 0.00
3:15 am 03:15 Cloudy with Rain 79 26 54 12.4 43 43 W 29 46 29.87 1011 7 11 0.00 0.00
3:35 am 03:35 Mostly Cloudy with Light Rain 70 21.3 59 15 67 67 N 15 24 29.83 1010 10 16 0.03 0.76
3:55 am 03:55 Clear 75 23.7 57 13.8 54 54 Calm 29.82 1010 10 16 0.03 0.76
4:15 am 04:15 Clear 72 22.4 59 15.2 64 64 SSE 6 9 29.80 1009 10 16 0.00 0.00
4:35 am 04:35 Partly Cloudy 71 21.5 60 15.8 70 70 SE 16 26 29.76 1008 10 16 0.00 0.00
4:55 am 04:55 Partly Cloudy 72 22 59 15 65 65 S 13 20 29.76 1008 10 16 0.00 0.00
5:15 am 05:15 Partly Cloudy 74 23.5 56 13.6 54 54 SSW 10 17 29.80 1009 10 16 0.00 0.00
5:35 am 05:35 Partly Cloudy 73 22.8 57 13.7 57 57 SSW 7 11 29.81 1010 10 16 0.00 0.00
5:55 am 05:55 Partly Cloudy with Light Rain 71 21.6 58 14.6 65 65 ENE 6 9 29.79 1009 10 16 0.00 0.00
6:15 am 06:15 Clear 74 23.1 56 13.6 55 55 SE 7 11 29.73 1007 10 16 0.00 0.00
6:35 am 06:35 Clear 71 21.5 57 14 62 62 SSE 6 9 29.74 1007 10 16 0.00 0.00
6:55 am 06:55 Sunny 69 20.8 57 14.1 66 66 Calm 29.75 1007 10 16 0.00 0.00
7:15 am 07:15 Sunny 67 19.5 58 14.7 74 74 N 13 20 29.80 1009 10 16 0.00 0.00
7:35 am 07:35 Sunny 68 19.9 59 15.1 74 74 NNE 6 9 29.81 1009 10 16 0.00 0.00
7:55 am 07:55 Sunny 68 20.2 60 15.4 74 74 NNE 8 13 29.82 1010 10 16 0.00 0.00
8:15 am 08:15 Sunny 69 20.5 60 15.7 74 74 NNE 6 9 29.81 1010 10 16 0.00 0.00
8:35 am 08:35 Sunny 69 20.6 61 16 75 75 N 5 7 29.83 1010 10 16 0.00 0.00
8:55 am 08:55 Sunny 72 22 60 15.7 68 68 Calm 29.84 1011 10 16 0.00 0.00
9:15 am 09:15 Sunny 74 23.2 62 16.6 67 67 Calm 29.84 1011 10 16 0.00 0.00
9:35 am 09:35 Sunny 74 23.6 63 17.2 67 67 N 6 9 29.83 1010 10 16 0.00 0.00
9:55 am 09:55 Sunny 74 23.6 63 17.3 68 68 N 6 9 29.83 1010 10 16 0.00 0.00
10:15 am 10:15 Sunny 74 23.6 64 17.5 69 69 NNE 5 7 29.84 1010 10 16 0.00 0.00
10:35 am 10:35 Sunny 76 24.6 65 18.3 68 68 N 5 7 29.83 1010 10 16 0.00 0.00
10:55 am 10:55 Sunny 78 25.5 65 18.1 64 64 NE 7 11 29.82 1010 10 16 0.00 0.00
11:15 am 11:15 Sunny 79 26 66 18.7 64 64 NE 6 9 29.83 1010 10 16 0.00 0.00
11:35 am 11:35 Sunny 80 26.6 67 19.3 64 64 ENE 6 9 29.81 1010 10 16 0.00 0.00
11:55 am 11:55 Sunny 81 27 66 18.7 60 60 ENE 5 7 29.81 1010 10 16 0.00 0.00
12:15 pm 12:15 Sunny 80 26.8 65 18.4 60 60 ENE 5 7 29.80 1009 10 16 0.00 0.00
12:35 pm 12:35 Sunny 80 26.9 65 18.3 59 59 Calm 29.81 1010 10 16 0.00 0.00
12:55 pm 12:55 Sunny 81 27.1 66 19 61 61 E 6 9 29.79 1009 10 16 0.00 0.00
1:15 pm 13:15 Sunny 80 26.7 66 18.9 62 62 NE 5 7 29.79 1009 10 16 0.00 0.00
1:35 pm 13:35 Sunny 81 27.3 67 19.4 62 62 NNE 3 6 29.79 1009 10 16 0.00 0.00
1:55 pm 13:55 Sunny 82 27.6 67 19.3 61 61 Calm 29.81 1009 10 16 0.00 0.00
2:15 pm 14:15 Sunny 82 28 66 18.8 57 57 E 3 6 29.79 1009 10 16 0.00 0.00
2:35 pm 14:35 Sunny 82 28 67 19.3 59 59 ENE 5 7 29.78 1009 10 16 0.00 0.00
2:55 pm 14:55 Sunny 83 28.4 67 19.5 59 59 Calm 29.78 1008 10 16 0.00 0.00
3:15 pm 15:15 Sunny 84 29 65 18.4 53 53 ENE 3 6 29.78 1008 10 16 0.00 0.00
3:35 pm 15:35 Sunny 85 29.2 66 18.8 53 53 ENE 3 6 29.76 1008 10 16 0.00 0.00
3:55 pm 15:55 Sunny 85 29.4 65 18.1 51 51 N 3 6 29.75 1008 10 16 0.00 0.00
4:15 pm 16:15 Sunny 85 29.5 66 18.8 53 53 N 6 9 29.74 1007 10 16 0.00 0.00
4:35 pm 16:35 Sunny 85 29.5 67 19.3 54 54 NNE 8 13 29.74 1007 10 16 0.00 0.00
4:55 pm 16:55 Sunny 85 29.4 68 20.2 58 58 NNE 7 11 29.73 1007 10 16 0.00 0.00
5:15 pm 17:15 Sunny 85 29.6 69 20.7 59 59 N 9 15 29.72 1006 10 16 0.00 0.00
5:35 pm 17:35 Sunny 85 29.5 70 21 60 60 NE 5 7 29.73 1007 10 16 0.00 0.00
5:55 pm 17:55 Sunny 85 29.5 70 20.9 60 60 ESE 6 9 29.73 1007 10 16 0.00 0.00
6:15 pm 18:15 Sunny 85 29.3 71 21.6 63 63 SSE 9 15 29.73 1007 10 16 0.00 0.00
6:35 pm 18:35 Sunny 85 29.2 72 22.4 67 67 SE 7 11 29.73 1007 10 16 0.00 0.00
6:55 pm 18:55 Sunny 83 28.5 71 21.5 66 66 SSE 7 11 29.74 1007 10 16 0.00 0.00
7:15 pm 19:15 Sunny 82 28 72 22 70 70 SSE 5 7 29.73 1007 10 16 0.00 0.00
7:35 pm 19:35 Sunny 82 27.5 72 22.2 73 73 SSE 3 6 29.73 1007 10 16 0.00 0.00
7:55 pm 19:55 Sunny 80 26.9 72 22 75 75 SSE 3 6 29.73 1007 10 16 0.00 0.00
8:15 pm 20:15 Sunny 79 26 72 22.2 80 80 SSE 3 6 29.73 1007 10 16 0.00 0.00
8:35 pm 20:35 Sunny 78 25.5 71 21.5 79 79 S 3 6 29.73 1007 10 16 0.00 0.00
8:55 pm 20:55 Clear 76 24.5 70 21.2 82 82 S 6 9 29.74 1007 10 16 0.00 0.00
9:15 pm 21:15 Clear 75 23.9 69 20.6 82 82 Calm 29.76 1008 10 16 0.00 0.00
9:35 pm 21:35 Clear 73 23 69 20.4 85 85 SSE 6 9 29.76 1008 10 16 0.00 0.00
9:55 pm 21:55 Clear 74 23.2 68 20 82 82 SSE 7 11 29.77 1008 10 16 0.00 0.00
10:15 pm 22:15 Clear 73 23 67 19.7 82 82 SE 6 9 29.78 1009 10 16 0.00 0.00
10:35 pm 22:35 Clear 74 23.1 67 19.5 80 80 SSE 6 9 29.77 1008 10 16 0.00 0.00
10:55 pm 22:55 Clear 74 23.3 67 19.3 78 78 SSE 7 11 29.76 1008 10 16 0.00 0.00
11:15 pm 23:15 Clear 74 23.1 67 19.2 79 79 SSE 7 11 29.75 1008 10 16 0.00 0.00
11:35 pm 23:35 Clear 74 23.1 68 19.8 82 82 SSE 8 13 29.75 1008 10 16 0.00 0.00
11:55 pm 23:55 Clear 75 23.7 70 21 85 85 SSE 9 15 29.74 1007 10 16 0.00 0.00

Powered by AerisWeather